CW5846 Weather Reports


Display with metric or nautical units.
time (UTC)temp
F
wind
direction
speed
MPH
gust
MPH
rain 1hr
in
rain 24hr
in
rain mn
in
humidity
%
barometer
mb
20260509124045 68 346 0.0 0.0 0.00 0.00 0.00 93 1031.4
20260509123543 68 318 0.0 0.0 0.00 0.00 0.00 93 1031.2
20260509123039 67 347 0.0 0.0 0.00 0.00 0.00 93 1031.5
20260509122535 67 151 0.0 0.0 0.00 0.00 0.00 94 1031.4
20260509122032 67 188 0.0 0.0 0.00 0.00 0.00 94 1031.3
20260509121529 67 206 0.0 0.0 0.00 0.00 0.00 94 1031.3
20260509121026 67 189 0.0 0.0 0.00 0.00 0.00 95 1031.2
20260509120525 67 342 0.0 0.0 0.00 0.00 0.00 95 1031.2
20260509120023 67 4 0.0 0.0 0.00 0.00 0.00 95 1030.8
20260509115519 67 2 0.0 1.0 0.00 0.00 0.00 95 1031.0
20260509115017 67 342 0.0 0.0 0.00 0.00 0.00 95 1031.1
20260509114515 66 2 0.0 0.0 0.00 0.00 0.00 95 1030.8
20260509114014 66 172 0.0 0.0 0.00 0.00 0.00 95 1030.7
20260509113512 66 172 0.0 0.0 0.00 0.00 0.00 95 1030.6
20260509113009 66 171 0.0 0.0 0.00 0.00 0.00 95 1030.6
20260509112505 66 146 0.0 0.0 0.00 0.00 0.00 95 1030.4
20260509112002 66 107 0.0 0.0 0.00 0.00 0.00 95 1030.5
20260509111459 66 93 0.0 0.0 0.00 0.00 0.00 95 1030.4
20260509110956 66 90 0.0 0.0 0.00 0.00 0.00 95 1030.2
20260509110453 66 90 0.0 0.0 0.00 0.00 0.00 95 1030.3
20260509105950 66 143 0.0 0.0 0.00 0.00 0.00 95 1030.2
20260509105449 66 144 0.0 0.0 0.00 0.00 0.00 95 1030.0
20260509104945 66 168 0.0 0.0 0.00 0.00 0.00 95 1029.9
20260509104442 66 171 0.0 0.0 0.00 0.00 0.00 94 1029.8
20260509103940 66 121 0.0 0.0 0.00 0.00 0.00 94 1029.9
20260509103437 67 121 0.0 0.0 0.00 0.00 0.00 94 1029.9
20260509102935 67 175 0.0 0.0 0.00 0.00 0.00 94 1029.7
20260509102432 67 178 0.0 0.0 0.00 0.00 0.00 94 1029.9
20260509101928 67 121 0.0 0.0 0.00 0.00 0.00 94 1029.6
20260509101425 67 101 0.0 0.0 0.00 0.00 0.00 94 1029.8
20260509100922 67 68 0.0 0.0 0.00 0.00 0.00 94 1029.6
20260509100419 67 156 0.0 0.0 0.00 0.00 0.00 94 1029.7
20260509095916 67 349 0.0 0.0 0.00 0.00 0.00 94 1029.7
20260509095413 67 335 0.0 0.0 0.00 0.00 0.00 94 1029.7
20260509094910 67 272 0.0 0.0 0.00 0.00 0.00 94 1029.8
20260509094406 67 21 0.0 1.0 0.00 0.00 0.00 94 1029.8
20260509093904 67 354 0.0 0.0 0.00 0.00 0.00 94 1030.1
20260509093401 67 349 0.0 0.0 0.00 0.00 0.00 94 1029.7
20260509092900 67 330 0.0 0.0 0.00 0.00 0.00 94 1029.8
20260509092357 67 3 0.0 0.0 0.00 0.00 0.00 94 1030.0
20260509091855 67 3 0.0 0.0 0.00 0.00 0.00 94 1029.9
20260509091352 67 3 0.0 0.0 0.00 0.00 0.00 94 1029.7
20260509090849 67 25 0.0 0.0 0.00 0.00 0.00 93 1029.8
20260509090347 67 5 0.0 0.0 0.00 0.00 0.00 93 1029.8
20260509085844 67 8 0.0 0.0 0.00 0.00 0.00 93 1029.7
20260509085341 67 14 0.0 0.0 0.00 0.00 0.00 93 1029.8
20260509084837 68 10 0.0 0.0 0.00 0.00 0.00 93 1030.0
20260509084334 68 0 0.0 0.0 0.00 0.00 0.00 93 1029.8
20260509083832 68 24 0.0 0.0 0.00 0.00 0.00 93 1030.0
20260509083328 68 1 0.0 0.0 0.00 0.00 0.00 92 1030.3
20260509082825 68 2 0.0 0.0 0.00 0.00 0.00 92 1030.2
20260509082321 68 14 0.0 0.0 0.00 0.00 0.00 91 1030.3
20260509081819 68 14 0.0 0.0 0.00 0.00 0.00 91 1030.2
20260509081316 68 4 0.0 0.0 0.00 0.00 0.00 91 1030.2
20260509080814 68 3 0.0 0.0 0.00 0.00 0.00 90 1030.3
20260509080312 68 1 0.0 0.0 0.00 0.00 0.00 90 1030.4
20260509075810 68 358 0.0 0.0 0.00 0.00 0.00 89 1030.6
20260509075307 69 9 0.0 0.0 0.00 0.00 0.00 88 1030.5
20260509074804 69 3 0.0 1.0 0.00 0.00 0.00 88 1030.7
20260509074301 69 195 0.0 0.0 0.00 0.00 0.00 88 1030.5
20260509073757 69 186 0.0 0.0 0.00 0.00 0.00 88 1030.5
20260509073254 69 171 0.0 2.0 0.00 0.00 0.00 88 1030.7
20260509072750 69 324 1.0 1.0 0.00 0.00 0.00 87 1030.6
20260509072247 69 335 0.0 0.0 0.00 0.00 0.00 87 1030.6
20260509071744 69 253 0.0 0.0 0.00 0.00 0.00 87 1030.7
20260509071241 69 7 0.0 1.0 0.00 0.00 0.00 87 1030.7
20260509070738 69 23 0.0 3.0 0.00 0.00 0.00 87 1030.6
20260509070234 69 178 0.0 3.0 0.00 0.00 0.00 87 1030.7
20260509065731 69 344 0.0 0.0 0.00 0.00 0.00 87 1031.0
20260509065227 69 142 1.0 1.0 0.00 0.00 0.00 87 1030.9
20260509064724 68 112 0.0 1.0 0.00 0.00 0.00 87 1031.0
20260509064221 68 285 0.0 1.0 0.00 0.00 0.00 87 1030.7
20260509063719 68 183 1.0 1.0 0.00 0.00 0.00 88 1030.7
20260509063214 68 199 0.0 1.0 0.00 0.00 0.00 88 1030.8
20260509062712 68 322 0.0 0.0 0.00 0.00 0.00 89 1030.6
20260509062209 68 119 0.0 0.0 0.00 0.00 0.00 89 1031.1
20260509061706 68 356 0.0 0.0 0.00 0.00 0.00 88 1031.4
20260509061204 69 356 0.0 1.0 0.00 0.00 0.00 86 1031.4
20260509060701 69 344 0.0 0.0 0.00 0.00 0.00 85 1031.2
20260509060157 69 193 0.0 2.0 0.00 0.00 0.00 84 1031.2
20260509055653 69 193 1.0 1.0 0.00 0.00 0.00 84 1031.6
20260509055149 69 170 1.0 2.0 0.00 0.00 0.00 84 1031.6
20260509054645 69 259 0.0 1.0 0.00 0.00 0.00 84 1031.5
20260509054143 68 285 0.0 1.0 0.00 0.00 0.00 85 1031.4
20260509053641 69 171 0.0 0.0 0.00 0.00 0.00 85 1031.5
20260509053138 69 169 0.0 1.0 0.00 0.00 0.00 85 1031.6
20260509052636 68 340 0.0 1.0 0.00 0.00 0.00 85 1031.5
20260509052133 68 178 0.0 1.0 0.00 0.00 0.00 84 1031.3
20260509051631 68 165 0.0 0.0 0.00 0.00 0.00 84 1031.4
20260509051128 68 349 0.0 0.0 0.00 0.00 0.00 84 1031.7
20260509050625 68 276 0.0 0.0 0.00 0.00 0.00 84 1031.7
20260509050121 68 236 0.0 1.0 0.00 0.00 0.00 84 1031.4
20260509045619 68 251 0.0 2.0 0.00 0.00 0.00 84 1031.7
20260509045116 68 175 1.0 2.0 0.00 0.00 0.00 85 1031.8
20260509044613 67 131 2.0 2.0 0.00 0.00 0.00 86 1031.7
20260509044110 67 171 0.0 1.0 0.00 0.00 0.00 86 1031.8
20260509043606 67 187 0.0 1.0 0.00 0.00 0.00 88 1031.8
20260509043102 66 121 0.0 2.0 0.00 0.00 0.00 90 1032.0
20260509042559 65 221 0.0 1.0 0.00 0.00 0.00 91 1031.8
20260509042055 65 348 1.0 1.0 0.00 0.00 0.00 92 1031.8
20260509041552 65 37 0.0 1.0 0.00 0.00 0.00 92 1031.4
20260509041049 65 14 0.0 0.0 0.00 0.00 0.00 91 1030.7
20260509040548 65 11 0.0 0.0 0.00 0.00 0.00 90 1030.3
20260509040044 65 9 0.0 0.0 0.00 0.00 0.00 89 1030.2
20260509035541 65 10 0.0 0.0 0.00 0.00 0.00 88 1030.3
20260509035037 66 10 0.0 0.0 0.00 0.00 0.00 88 1030.1
20260509034536 66 10 0.0 0.0 0.00 0.00 0.00 88 1030.1
20260509034032 66 10 0.0 1.0 0.00 0.00 0.00 88 1030.2
20260509033529 66 350 1.0 1.0 0.00 0.00 0.00 89 1030.2
20260509033026 66 147 0.0 1.0 0.00 0.00 0.00 88 1029.9
20260509032524 66 74 0.0 0.0 0.00 0.00 0.00 88 1030.1
20260509032021 66 74 0.0 0.0 0.00 0.00 0.00 87 1029.9
20260509031518 66 74 0.0 0.0 0.00 0.00 0.00 86 1029.9
20260509031015 66 12 0.0 0.0 0.00 0.00 0.00 86 1029.9
20260509030513 67 12 0.0 0.0 0.00 0.00 0.00 85 1030.1
20260509030010 67 10 0.0 0.0 0.00 0.00 0.00 85 1030.3
20260509025506 68 9 0.0 0.0 0.00 0.00 0.00 83 1029.9
20260509025001 68 40 0.0 0.0 0.00 0.00 0.00 81 1030.0
20260509024458 69 39 0.0 0.0 0.00 0.00 0.00 80 1030.1
20260509023954 69 39 0.0 0.0 0.00 0.00 0.00 80 1030.4
20260509023452 70 14 0.0 1.0 0.00 0.00 0.00 79 1030.1
20260509022948 70 330 0.0 0.0 0.00 0.00 0.00 78 1030.2
20260509022445 70 178 0.0 1.0 0.00 0.00 0.00 79 1030.2
20260509021943 70 188 1.0 1.0 0.00 0.00 0.00 79 1029.9
20260509021439 70 34 0.0 0.0 0.00 0.00 0.00 79 1029.8
20260509020937 70 177 0.0 1.0 0.00 0.00 0.00 79 1029.6
20260509020435 70 171 0.0 0.0 0.00 0.00 0.00 78 1029.7
20260509015932 71 172 0.0 0.0 0.00 0.00 0.00 77 1029.8
20260509015431 71 179 0.0 0.0 0.00 0.00 0.00 77 1030.1
20260509014927 71 220 0.0 0.0 0.00 0.00 0.00 77 1030.0
20260509014424 71 333 0.0 0.0 0.00 0.00 0.00 76 1029.7
20260509013920 72 336 0.0 0.0 0.00 0.00 0.00 76 1029.8
20260509013417 72 335 0.0 0.0 0.00 0.00 0.00 73 1029.6
20260509012912 72 324 0.0 0.0 0.00 0.00 0.00 73 1029.7
20260509012409 73 218 0.0 0.0 0.00 0.00 0.00 72 1029.8
20260509011907 73 233 0.0 0.0 0.00 0.00 0.00 72 1029.9
20260509011404 73 340 0.0 0.0 0.00 0.00 0.00 71 1029.6
20260509010902 74 340 0.0 0.0 0.00 0.00 0.00 69 1029.7
20260509010359 74 295 0.0 0.0 0.00 0.00 0.00 69 1029.6
20260509005856 74 158 0.0 0.0 0.00 0.00 0.00 68 1029.5
20260509005355 74 160 0.0 0.0 0.00 0.00 0.00 68 1029.5
20260509004854 75 162 0.0 1.0 0.00 0.00 0.00 67 1029.2
20260509004351 75 215 0.0 2.0 0.00 0.00 0.00 67 1029.3
20260509003849 75 145 1.0 2.0 0.00 0.00 0.00 66 1029.2
20260509003346 75 178 2.0 3.0 0.00 0.00 0.00 66 1029.2
20260509002843 75 207 1.0 3.0 0.00 0.00 0.00 66 1029.1
20260509002341 75 199 2.0 2.0 0.00 0.00 0.00 65 1029.2
20260509001838 76 167 1.0 2.0 0.00 0.00 0.00 65 1028.9
20260509001334 76 164 0.0 0.0 0.00 0.00 0.00 65 1028.9
20260509000832 76 57 0.0 2.0 0.00 0.00 0.00 64 1028.9
20260509000329 77 10 2.0 3.0 0.00 0.00 0.00 64 1028.8
20260508235825 77 214 0.0 1.0 0.00 0.00 0.00 64 1028.8
20260508235323 77 136 1.0 1.0 0.00 0.00 0.00 63 1028.8
20260508234820 78 168 2.0 6.0 0.00 0.00 0.00 62 1028.7
20260508234316 77 192 1.0 4.0 0.00 0.00 0.00 63 1028.8
20260508233815 78 254 0.0 7.0 0.00 0.00 0.00 62 1028.9
20260508233313 79 249 1.0 4.0 0.00 0.00 0.00 61 1028.7
20260508232810 78 233 1.0 4.0 0.00 0.00 0.00 62 1028.9
20260508232307 79 297 1.0 4.0 0.00 0.00 0.00 60 1028.9
20260508231805 79 91 0.0 4.0 0.00 0.00 0.00 61 1029.0
20260508231300 79 195 1.0 3.0 0.00 0.00 0.00 62 1028.7
20260508230758 78 162 0.0 3.0 0.00 0.00 0.00 63 1029.1
20260508230254 79 193 1.0 2.0 0.00 0.00 0.00 60 1028.9
20260508225752 80 19 1.0 3.0 0.00 0.00 0.00 59 1029.0
20260508225248 81 150 1.0 1.0 0.00 0.00 0.00 59 1028.9
20260508224746 82 340 2.0 4.0 0.00 0.00 0.00 57 1029.0
20260508224243 82 155 3.0 7.0 0.00 0.00 0.00 57 1028.9
20260508223741 81 196 1.0 6.0 0.00 0.00 0.00 59 1029.1
20260508223238 82 142 1.0 3.0 0.00 0.00 0.00 60 1029.2
20260508222735 82 143 0.0 3.0 0.00 0.00 0.00 59 1029.2
20260508222233 83 335 2.0 3.0 0.00 0.00 0.00 59 1029.3
20260508221729 82 174 1.0 6.0 0.00 0.00 0.00 61 1029.4
20260508221225 82 125 2.0 2.0 0.00 0.00 0.00 61 1029.4
20260508220721 81 97 2.0 2.0 0.00 0.00 0.00 64 1029.5
20260508220218 82 110 2.0 4.0 0.00 0.00 0.00 61 1029.6
20260508215714 82 132 2.0 6.0 0.00 0.00 0.00 61 1029.5
20260508215211 81 192 2.0 3.0 0.00 0.00 0.00 62 1029.6
20260508214708 81 310 0.0 2.0 0.00 0.00 0.00 62 1029.6
20260508214205 80 288 0.0 1.0 0.00 0.00 0.00 63 1029.7
20260508213702 81 45 1.0 3.0 0.00 0.00 0.00 62 1029.8
20260508213158 81 190 1.0 2.0 0.00 0.00 0.00 63 1029.8
20260508212655 83 274 3.0 4.0 0.00 0.00 0.00 58 1030.1
20260508212151 81 268 0.0 2.0 0.00 0.00 0.00 62 1030.1
20260508211651 82 305 0.0 2.0 0.00 0.00 0.00 59 1030.0
20260508211148 81 148 2.0 3.0 0.00 0.00 0.00 61 1030.0
20260508210645 81 175 3.0 6.0 0.00 0.00 0.00 60 1030.1
20260508210142 80 208 2.0 6.0 0.00 0.00 0.00 60 1030.0
20260508205639 81 246 1.0 9.0 0.00 0.00 0.00 61 1030.3
20260508205136 80 338 1.0 3.0 0.00 0.00 0.00 63 1030.4
20260508204632 80 245 0.0 2.0 0.00 0.00 0.00 61 1030.2
20260508204128 80 11 4.0 4.0 0.00 0.00 0.00 61 1030.4
20260508203624 79 117 3.0 4.0 0.00 0.00 0.00 62 1030.5
20260508203120 79 228 2.0 6.0 0.00 0.00 0.00 62 1030.7
20260508202617 80 181 2.0 7.0 0.00 0.00 0.00 62 1030.6
20260508202114 80 126 0.0 4.0 0.00 0.00 0.00 60 1030.6
20260508201611 81 123 1.0 3.0 0.00 0.00 0.00 57 1030.6
20260508201107 81 228 0.0 4.0 0.00 0.00 0.00 61 1030.8
20260508200604 81 107 5.0 8.0 0.00 0.00 0.00 60 1030.7
20260508200100 81 167 1.0 3.0 0.00 0.00 0.00 59 1030.7
20260508195557 80 184 1.0 4.0 0.00 0.00 0.00 61 1030.9
20260508195053 80 213 2.0 3.0 0.00 0.00 0.00 60 1030.8
20260508194550 81 160 1.0 4.0 0.00 0.00 0.00 58 1031.0
20260508194048 80 163 2.0 3.0 0.00 0.00 0.00 58 1031.1
20260508193544 79 40 2.0 4.0 0.00 0.00 0.00 59 1030.9
20260508193041 78 191 4.0 4.0 0.00 0.00 0.00 62 1031.0
20260508192537 79 132 2.0 3.0 0.00 0.00 0.00 59 1031.2
20260508192035 78 164 2.0 8.0 0.00 0.00 0.00 62 1031.4
20260508191531 80 359 1.0 4.0 0.00 0.00 0.00 57 1031.5
20260508191028 80 229 1.0 6.0 0.00 0.00 0.00 59 1031.3
20260508190525 79 261 0.0 3.0 0.00 0.00 0.00 60 1031.5
20260508190021 79 215 1.0 6.0 0.00 0.00 0.00 58 1031.5
20260508185519 79 187 1.0 3.0 0.00 0.00 0.00 55 1031.7
20260508185016 78 299 2.0 4.0 0.00 0.00 0.00 58 1031.8
20260508184514 78 179 3.0 7.0 0.00 0.00 0.00 57 1031.8
20260508184010 79 310 0.0 3.0 0.00 0.00 0.00 56 1031.8
20260508183507 77 357 0.0 1.0 0.00 0.00 0.00 57 1032.1
20260508183002 77 202 2.0 6.0 0.00 0.00 0.00 60 1032.4
20260508182459 76 70 2.0 3.0 0.00 0.00 0.00 58 1032.8
20260508181955 75 183 2.0 6.0 0.00 0.00 0.00 60 1032.9
20260508181451 76 186 6.0 8.0 0.00 0.00 0.00 58 1033.0
20260508180949 77 45 1.0 4.0 0.00 0.00 0.00 62 1033.1
20260508180446 77 189 0.0 1.0 0.00 0.00 0.00 59 1033.0
20260508175942 77 113 2.0 3.0 0.00 0.00 0.00 62 1033.3
20260508175438 76 227 2.0 3.0 0.00 0.00 0.00 60 1033.5
20260508174936 76 179 2.0 4.0 0.00 0.00 0.00 58 1033.1
20260508174434 77 220 2.0 7.0 0.00 0.00 0.00 60 1033.3
20260508173930 78 195 1.0 7.0 0.00 0.00 0.00 58 1033.6
20260508173427 78 335 0.0 3.0 0.00 0.00 0.00 60 1033.7
20260508172923 78 179 5.0 7.0 0.00 0.00 0.00 57 1033.5
20260508172421 76 294 3.0 4.0 0.00 0.00 0.00 58 1033.7
20260508171917 76 284 1.0 4.0 0.00 0.00 0.00 59 1033.8
20260508171413 76 30 1.0 2.0 0.00 0.00 0.00 60 1033.9
20260508170910 75 184 2.0 3.0 0.00 0.00 0.00 62 1034.1
20260508170408 76 76 1.0 3.0 0.00 0.00 0.00 59 1034.2
20260508165904 75 195 1.0 7.0 0.00 0.00 0.00 63 1034.4
20260508165402 75 184 2.0 6.0 0.00 0.00 0.00 62 1034.1
20260508164857 74 199 2.0 2.0 0.00 0.00 0.00 63 1034.1
20260508164355 76 156 0.0 2.0 0.00 0.00 0.00 63 1034.6
20260508163852 75 167 1.0 4.0 0.00 0.00 0.00 62 1034.6
20260508163351 75 353 2.0 4.0 0.00 0.00 0.00 60 1034.7
20260508162851 73 200 0.0 2.0 0.00 0.00 0.00 65 1034.7
20260508162349 74 204 3.0 4.0 0.00 0.00 0.00 63 1034.8
20260508161845 73 21 1.0 2.0 0.00 0.00 0.00 67 1034.5
20260508161343 72 103 1.0 2.0 0.00 0.00 0.00 66 1034.9
20260508160840 71 209 2.0 3.0 0.00 0.00 0.00 67 1034.7
20260508160338 71 280 1.0 3.0 0.00 0.00 0.00 68 1035.0
20260508155834 71 184 1.0 2.0 0.00 0.00 0.00 68 1034.9
20260508155332 72 171 0.0 1.0 0.00 0.00 0.00 66 1034.6
20260508154828 71 6 1.0 3.0 0.00 0.00 0.00 65 1035.0
20260508154326 72 155 2.0 3.0 0.00 0.00 0.00 66 1035.0
20260508153822 72 139 0.0 3.0 0.00 0.00 0.00 64 1035.0
20260508153320 72 134 1.0 3.0 0.00 0.00 0.00 65 1034.7
20260508152815 70 50 0.0 3.0 0.00 0.00 0.00 69 1034.8
20260508152312 70 15 1.0 4.0 0.00 0.00 0.00 70 1034.8
20260508151808 69 21 0.0 3.0 0.00 0.00 0.00 73 1034.8
20260508151305 68 150 4.0 4.0 0.00 0.00 0.00 75 1034.9
20260508150802 68 207 4.0 4.0 0.00 0.00 0.00 73 1035.0
20260508150258 67 27 1.0 2.0 0.00 0.00 0.00 76 1035.0
20260508145755 67 174 1.0 3.0 0.00 0.00 0.00 77 1035.1
20260508145251 66 182 0.0 3.0 0.00 0.00 0.00 78 1035.3
20260508144748 66 200 0.0 1.0 0.00 0.00 0.00 77 1035.4
20260508144246 66 188 1.0 4.0 0.00 0.00 0.00 79 1035.4
20260508143743 66 151 2.0 4.0 0.00 0.00 0.00 78 1034.9
20260508143240 66 118 1.0 4.0 0.00 0.00 0.00 78 1035.7
20260508142736 65 6 0.0 0.0 0.00 0.00 0.00 82 1035.8
20260508142233 64 340 1.0 2.0 0.00 0.00 0.00 83 1035.2
20260508141730 64 189 0.0 2.0 0.00 0.00 0.00 84 1035.3
20260508141227 63 194 2.0 4.0 0.00 0.00 0.00 85 1035.8
20260508140724 63 200 1.0 3.0 0.00 0.00 0.00 87 1035.6
20260508140221 62 71 0.0 1.0 0.00 0.00 0.00 92 1035.5
20260508135717 61 119 1.0 2.0 0.00 0.00 0.00 94 1035.8
20260508135213 61 197 0.0 1.0 0.00 0.00 0.00 97 1035.9
20260508134709 60 23 0.0 0.0 0.00 0.00 0.00 98 1035.5
20260508134207 60 320 0.0 0.0 0.00 0.00 0.00 99 1035.7
20260508133703 59 10 0.0 0.0 0.00 0.00 0.00 99 1035.6
20260508133201 58 13 0.0 0.0 0.00 0.00 0.00 99 1035.8
20260508132658 58 17 0.0 0.0 0.00 0.00 0.00 99 1035.5
20260508132155 58 52 0.0 0.0 0.00 0.00 0.00 99 1035.7
20260508131651 58 15 0.0 0.0 0.00 0.00 0.00 99 1035.9
20260508131147 58 180 0.0 0.0 0.00 0.00 0.00 99 1035.9
20260508130644 57 188 0.0 0.0 0.00 0.00 0.00 99 1035.9
20260508130141 57 188 0.0 0.0 0.00 0.00 0.00 99 1035.8
20260508125637 57 188 0.0 0.0 0.00 0.00 0.00 99 1035.8
20260508125134 56 13 0.0 0.0 0.00 0.00 0.00 99 1035.6
20260508124632 56 15 0.0 0.0 0.00 0.00 0.00 99 1035.7
20260508124129 56 12 0.0 0.0 0.00 0.00 0.00 99 1035.9